Location: Shandelee
(41.8790°N, 74.8713°W)
Time: 04:33:00
(UTC+00:00)

Cosmos 2227 Rocket - Pass Details

Date: 29 October 2020
Orbit: 839 x 845 km, 71.0° (Epoch: 23 November)

Event Time Altitude Azimuth Distance (km) Brightness Sun altitude
Rises 23:41:17 0° 330° (NNW) 3,406 5.8 -20.0°
Reaches altitude 10° 23:43:49 10° 325° (NW) 2,468 5.1 -20.4°
Maximum altitude 23:49:12 47° 253° (WSW) 1,111 3.2 -21.4°
Drops below altitude 10° 23:54:34 10° 181° (S) 2,456 4.6 -22.4°
Sets 23:57:05 0° 175° (S) 3,387 5.3 -22.9°
